Year,Month,Day,Hour,Minute,Value (Times are PST for temperature in C)
2013,05,02,00,00,7.10
2013,05,02,00,01,7.10
2013,05,02,00,02,7.10
2013,05,02,00,03,7.10
2013,05,02,00,04,7.10
2013,05,02,00,05,7.00
2013,05,02,00,06,7.00
2013,05,02,00,07,7.00
2013,05,02,00,08,7.00
2013,05,02,00,09,7.00
2013,05,02,00,10,7.00
2013,05,02,00,11,6.90
2013,05,02,00,12,6.90
2013,05,02,00,13,6.90
2013,05,02,00,14,6.90
2013,05,02,00,15,6.90
2013,05,02,00,16,6.80
2013,05,02,00,17,6.80
2013,05,02,00,18,6.80
2013,05,02,00,19,6.80
2013,05,02,00,20,6.80
2013,05,02,00,21,6.80
2013,05,02,00,22,6.70
2013,05,02,00,23,6.70
2013,05,02,00,24,6.70
2013,05,02,00,25,6.70
2013,05,02,00,26,6.70
2013,05,02,00,27,6.70
2013,05,02,00,28,6.70
2013,05,02,00,29,6.70
2013,05,02,00,30,6.70
2013,05,02,00,31,6.70
2013,05,02,00,32,6.70
2013,05,02,00,33,6.70
2013,05,02,00,34,6.70
2013,05,02,00,35,6.70
2013,05,02,00,36,6.70
2013,05,02,00,37,6.60
2013,05,02,00,38,6.60
2013,05,02,00,39,6.60
2013,05,02,00,40,6.60
2013,05,02,00,41,6.60
2013,05,02,00,42,6.50
2013,05,02,00,43,6.50
2013,05,02,00,44,6.50
2013,05,02,00,45,6.40
2013,05,02,00,46,6.40
2013,05,02,00,47,6.40
2013,05,02,00,48,6.40
2013,05,02,00,49,6.40
2013,05,02,00,50,6.40
2013,05,02,00,51,6.40
2013,05,02,00,52,6.40
2013,05,02,00,53,6.40
2013,05,02,00,54,6.40
2013,05,02,00,55,6.40
2013,05,02,00,56,6.40
2013,05,02,00,57,6.40
2013,05,02,00,58,6.30
2013,05,02,00,59,6.30
2013,05,02,01,00,6.30
2013,05,02,01,01,6.30
2013,05,02,01,02,6.30
2013,05,02,01,03,6.20
2013,05,02,01,04,6.20
2013,05,02,01,05,6.20
2013,05,02,01,06,6.20
2013,05,02,01,07,6.20
2013,05,02,01,08,6.20
2013,05,02,01,09,6.10
2013,05,02,01,10,6.10
2013,05,02,01,11,6.10
2013,05,02,01,12,6.10
2013,05,02,01,13,6.10
2013,05,02,01,14,6.10
2013,05,02,01,15,6.10
2013,05,02,01,16,6.10
2013,05,02,01,17,6.10
2013,05,02,01,18,6.10
2013,05,02,01,19,6.10
2013,05,02,01,20,6.10
2013,05,02,01,21,6.10
2013,05,02,01,22,6.10
2013,05,02,01,23,6.00
2013,05,02,01,24,6.00
2013,05,02,01,25,5.90
2013,05,02,01,26,5.90
2013,05,02,01,27,5.90
2013,05,02,01,28,5.90
2013,05,02,01,29,5.80
2013,05,02,01,30,5.80
2013,05,02,01,31,5.80
2013,05,02,01,32,5.80
2013,05,02,01,33,5.70
2013,05,02,01,34,5.70
2013,05,02,01,35,5.70
2013,05,02,01,36,5.70
2013,05,02,01,37,5.70
2013,05,02,01,38,5.70
2013,05,02,01,39,5.60
2013,05,02,01,40,5.60
2013,05,02,01,41,5.60
2013,05,02,01,42,5.60
2013,05,02,01,43,5.60
2013,05,02,01,44,5.60
2013,05,02,01,45,5.60
2013,05,02,01,46,5.60
2013,05,02,01,47,5.60
2013,05,02,01,48,5.50
2013,05,02,01,49,5.50
2013,05,02,01,50,5.50
2013,05,02,01,51,5.50
2013,05,02,01,52,5.50
2013,05,02,01,53,5.50
2013,05,02,01,54,5.40
2013,05,02,01,55,5.40
2013,05,02,01,56,5.40
2013,05,02,01,57,5.40
2013,05,02,01,58,5.40
2013,05,02,01,59,5.40
2013,05,02,02,00,5.40
2013,05,02,02,01,5.30
2013,05,02,02,02,5.30
2013,05,02,02,03,5.30
2013,05,02,02,04,5.30
2013,05,02,02,05,5.30
2013,05,02,02,06,5.30
2013,05,02,02,07,5.30
2013,05,02,02,08,5.30
2013,05,02,02,09,5.30
2013,05,02,02,10,5.30
2013,05,02,02,11,5.30
2013,05,02,02,12,5.30
2013,05,02,02,13,5.30
2013,05,02,02,14,5.30
2013,05,02,02,15,5.20
2013,05,02,02,16,5.20
2013,05,02,02,17,5.20
2013,05,02,02,18,5.20
2013,05,02,02,19,5.20
2013,05,02,02,20,5.20
2013,05,02,02,21,5.20
2013,05,02,02,22,5.20
2013,05,02,02,23,5.20
2013,05,02,02,24,5.10
2013,05,02,02,25,5.10
2013,05,02,02,26,5.10
2013,05,02,02,27,5.00
2013,05,02,02,28,5.00
2013,05,02,02,29,5.00
2013,05,02,02,30,5.00
2013,05,02,02,31,5.00
2013,05,02,02,32,5.00
2013,05,02,02,33,4.90
2013,05,02,02,34,4.90
2013,05,02,02,35,4.90
2013,05,02,02,36,4.90
2013,05,02,02,37,4.90
2013,05,02,02,38,4.90
2013,05,02,02,39,4.90
2013,05,02,02,40,4.90
2013,05,02,02,41,4.90
2013,05,02,02,42,4.90
2013,05,02,02,43,4.90
2013,05,02,02,44,4.80
2013,05,02,02,45,4.80
2013,05,02,02,46,4.80
2013,05,02,02,47,4.80
2013,05,02,02,48,4.80
2013,05,02,02,49,4.80
2013,05,02,02,50,4.80
2013,05,02,02,51,4.80
2013,05,02,02,52,4.70
2013,05,02,02,53,4.70
2013,05,02,02,54,4.70
2013,05,02,02,55,4.70
2013,05,02,02,56,4.70
2013,05,02,02,57,4.70
2013,05,02,02,58,4.70
2013,05,02,02,59,4.70
2013,05,02,03,00,4.70
2013,05,02,03,01,4.70
2013,05,02,03,02,4.70
2013,05,02,03,03,4.70
2013,05,02,03,04,4.70
2013,05,02,03,05,4.70
2013,05,02,03,06,4.70
2013,05,02,03,07,4.60
2013,05,02,03,08,4.60
2013,05,02,03,09,4.60
2013,05,02,03,10,4.60
2013,05,02,03,11,4.60
2013,05,02,03,12,4.60
2013,05,02,03,13,4.60
2013,05,02,03,14,4.60
2013,05,02,03,15,4.60
2013,05,02,03,16,4.60
2013,05,02,03,17,4.60
2013,05,02,03,18,4.60
2013,05,02,03,19,4.60
2013,05,02,03,20,4.60
2013,05,02,03,21,4.60
2013,05,02,03,22,4.60
2013,05,02,03,23,4.60
2013,05,02,03,24,4.60
2013,05,02,03,25,4.60
2013,05,02,03,26,4.60
2013,05,02,03,27,4.60
2013,05,02,03,28,4.60
2013,05,02,03,29,4.60
2013,05,02,03,30,4.60
2013,05,02,03,31,4.60
2013,05,02,03,32,4.60
2013,05,02,03,33,4.60
2013,05,02,03,34,4.60
2013,05,02,03,35,4.50
2013,05,02,03,36,4.60
2013,05,02,03,37,4.50
2013,05,02,03,38,4.50
2013,05,02,03,39,4.50
2013,05,02,03,40,4.40
2013,05,02,03,41,4.40
2013,05,02,03,42,4.40
2013,05,02,03,43,4.40
2013,05,02,03,44,4.40
2013,05,02,03,45,4.40
2013,05,02,03,46,4.40
2013,05,02,03,47,4.30
2013,05,02,03,48,4.30
2013,05,02,03,49,4.30
2013,05,02,03,50,4.30
2013,05,02,03,51,4.30
2013,05,02,03,52,4.30
2013,05,02,03,53,4.30
2013,05,02,03,54,4.30
2013,05,02,03,55,4.20
2013,05,02,03,56,4.20
2013,05,02,03,57,4.20
2013,05,02,03,58,4.20
2013,05,02,03,59,4.20
2013,05,02,04,00,4.20
2013,05,02,04,01,4.20
2013,05,02,04,02,4.20
2013,05,02,04,03,4.10
2013,05,02,04,04,4.10
2013,05,02,04,05,4.10
2013,05,02,04,06,4.10
2013,05,02,04,07,4.10
2013,05,02,04,08,4.10
2013,05,02,04,09,4.10
2013,05,02,04,10,4.10
2013,05,02,04,11,4.00
2013,05,02,04,12,4.00
2013,05,02,04,13,4.00
2013,05,02,04,14,4.00
2013,05,02,04,15,4.00
2013,05,02,04,16,4.00
2013,05,02,04,17,4.00
2013,05,02,04,18,4.00
2013,05,02,04,19,4.00
2013,05,02,04,20,4.00
2013,05,02,04,21,3.90
2013,05,02,04,22,3.90
2013,05,02,04,23,3.90
2013,05,02,04,24,3.90
2013,05,02,04,25,3.90
2013,05,02,04,26,3.90
2013,05,02,04,27,3.80
2013,05,02,04,28,3.80
2013,05,02,04,29,3.80
2013,05,02,04,30,3.80
2013,05,02,04,31,3.80
2013,05,02,04,32,3.80
2013,05,02,04,33,3.80
2013,05,02,04,34,3.80
2013,05,02,04,35,3.80
2013,05,02,04,36,3.80
2013,05,02,04,37,3.80
2013,05,02,04,38,3.80
2013,05,02,04,39,3.70
2013,05,02,04,40,3.70
2013,05,02,04,41,3.70
2013,05,02,04,42,3.70
2013,05,02,04,43,3.80
2013,05,02,04,44,3.80
2013,05,02,04,45,3.80
2013,05,02,04,46,3.80
2013,05,02,04,47,3.80
2013,05,02,04,48,3.80
2013,05,02,04,49,3.90
2013,05,02,04,50,3.90
2013,05,02,04,51,3.90
2013,05,02,04,52,4.00
2013,05,02,04,53,4.00
2013,05,02,04,54,4.10
2013,05,02,04,55,4.10
2013,05,02,04,56,4.10
2013,05,02,04,57,4.10
2013,05,02,04,58,4.10
2013,05,02,04,59,4.10
2013,05,02,05,00,4.10
2013,05,02,05,01,4.10
2013,05,02,05,02,4.10
2013,05,02,05,03,4.00
2013,05,02,05,04,4.00
2013,05,02,05,05,3.90
2013,05,02,05,06,3.90
2013,05,02,05,07,3.90
2013,05,02,05,08,3.90
2013,05,02,05,09,3.80
2013,05,02,05,10,3.80
2013,05,02,05,11,3.80
2013,05,02,05,12,3.70
2013,05,02,05,13,3.70
2013,05,02,05,14,3.70
2013,05,02,05,15,3.70
2013,05,02,05,16,3.70
2013,05,02,05,17,3.70
2013,05,02,05,18,3.70
2013,05,02,05,19,3.70
2013,05,02,05,20,3.60
2013,05,02,05,21,3.60
2013,05,02,05,22,3.60
2013,05,02,05,23,3.60
2013,05,02,05,24,3.60
2013,05,02,05,25,3.60
2013,05,02,05,26,3.60
2013,05,02,05,27,3.60
2013,05,02,05,28,3.60
2013,05,02,05,29,3.60
2013,05,02,05,30,3.50
2013,05,02,05,31,3.50
2013,05,02,05,32,3.50
2013,05,02,05,33,3.40
2013,05,02,05,34,3.40
2013,05,02,05,35,3.40
2013,05,02,05,36,3.40
2013,05,02,05,37,3.40
2013,05,02,05,38,3.40
2013,05,02,05,39,3.30
2013,05,02,05,40,3.30
2013,05,02,05,41,3.40
2013,05,02,05,42,3.40
2013,05,02,05,43,3.30
2013,05,02,05,44,3.40
2013,05,02,05,45,3.40
2013,05,02,05,46,3.40
2013,05,02,05,47,3.40
2013,05,02,05,48,3.40
2013,05,02,05,49,3.40
2013,05,02,05,50,3.40
2013,05,02,05,51,3.40
2013,05,02,05,52,3.40
2013,05,02,05,53,3.40
2013,05,02,05,54,3.40
2013,05,02,05,55,3.40
2013,05,02,05,56,3.30
2013,05,02,05,57,3.30
2013,05,02,05,58,3.30
2013,05,02,05,59,3.30
2013,05,02,06,00,3.30
2013,05,02,06,01,3.30
2013,05,02,06,02,3.30
2013,05,02,06,03,3.30
2013,05,02,06,04,3.30
2013,05,02,06,05,3.30
2013,05,02,06,06,3.30
2013,05,02,06,07,3.30
2013,05,02,06,08,3.30
2013,05,02,06,09,3.30
2013,05,02,06,10,3.30
2013,05,02,06,11,3.30
2013,05,02,06,12,3.30
2013,05,02,06,13,3.30
2013,05,02,06,14,3.30
2013,05,02,06,15,3.30
2013,05,02,06,16,3.30
2013,05,02,06,17,3.30
2013,05,02,06,18,3.30
2013,05,02,06,19,3.30
2013,05,02,06,20,3.30
2013,05,02,06,21,3.30
2013,05,02,06,22,3.30
2013,05,02,06,23,3.30
2013,05,02,06,24,3.30
2013,05,02,06,25,3.30
2013,05,02,06,26,3.40
2013,05,02,06,27,3.40
2013,05,02,06,28,3.40
2013,05,02,06,29,3.40
2013,05,02,06,30,3.40
2013,05,02,06,31,3.40
2013,05,02,06,32,3.40
2013,05,02,06,33,3.40
2013,05,02,06,34,3.40
2013,05,02,06,35,3.50
2013,05,02,06,36,3.50
2013,05,02,06,37,3.50
2013,05,02,06,38,3.60
2013,05,02,06,39,3.60
2013,05,02,06,40,3.60
2013,05,02,06,41,3.60
2013,05,02,06,42,3.60
2013,05,02,06,43,3.60
2013,05,02,06,44,3.70
2013,05,02,06,45,3.70
2013,05,02,06,46,3.70
2013,05,02,06,47,3.70
2013,05,02,06,48,3.70
2013,05,02,06,49,3.80
2013,05,02,06,50,3.80
2013,05,02,06,51,3.80
2013,05,02,06,52,3.80
2013,05,02,06,53,3.90
2013,05,02,06,54,4.00
2013,05,02,06,55,4.00
2013,05,02,06,56,4.00
2013,05,02,06,57,4.10
2013,05,02,06,58,4.20
2013,05,02,06,59,4.20
2013,05,02,07,00,4.30
2013,05,02,07,01,4.30
2013,05,02,07,02,4.40
2013,05,02,07,03,4.50
2013,05,02,07,04,4.60
2013,05,02,07,05,4.60
2013,05,02,07,06,4.70
2013,05,02,07,07,4.80
2013,05,02,07,08,4.80
2013,05,02,07,09,4.90
2013,05,02,07,10,5.00
2013,05,02,07,11,5.10
2013,05,02,07,12,5.20
2013,05,02,07,13,5.20
2013,05,02,07,14,5.20
2013,05,02,07,15,5.30
2013,05,02,07,16,5.30
2013,05,02,07,17,5.30
2013,05,02,07,18,5.30
2013,05,02,07,19,5.40
2013,05,02,07,20,5.50
2013,05,02,07,21,5.60
2013,05,02,07,22,5.80
2013,05,02,07,23,5.90
2013,05,02,07,24,6.00
2013,05,02,07,25,6.10
2013,05,02,07,26,6.20
2013,05,02,07,27,6.30
2013,05,02,07,28,6.30
2013,05,02,07,29,6.30
2013,05,02,07,30,6.40
2013,05,02,07,31,6.60
2013,05,02,07,32,6.70
2013,05,02,07,33,6.80
2013,05,02,07,34,6.90
2013,05,02,07,35,7.00
2013,05,02,07,36,7.20
2013,05,02,07,37,7.30
2013,05,02,07,38,7.40
2013,05,02,07,39,7.60
2013,05,02,07,40,7.70
2013,05,02,07,41,7.80
2013,05,02,07,42,7.90
2013,05,02,07,43,7.90
2013,05,02,07,44,8.00
2013,05,02,07,45,8.00
2013,05,02,07,46,8.10
2013,05,02,07,47,8.20
2013,05,02,07,48,8.30
2013,05,02,07,49,8.40
2013,05,02,07,50,8.50
2013,05,02,07,51,8.60
2013,05,02,07,52,8.70
2013,05,02,07,53,8.80
2013,05,02,07,54,9.00
2013,05,02,07,55,9.00
2013,05,02,07,56,9.10
2013,05,02,07,57,9.20
2013,05,02,07,58,9.30
2013,05,02,07,59,9.40
2013,05,02,08,00,9.50
2013,05,02,08,01,9.60
2013,05,02,08,02,9.60
2013,05,02,08,03,9.70
2013,05,02,08,04,9.80
2013,05,02,08,05,9.80
2013,05,02,08,06,9.90
2013,05,02,08,07,10.00
2013,05,02,08,08,10.10
2013,05,02,08,09,10.20
2013,05,02,08,10,10.30
2013,05,02,08,11,10.30
2013,05,02,08,12,10.40
2013,05,02,08,13,10.40
2013,05,02,08,14,10.50
2013,05,02,08,15,10.60
2013,05,02,08,16,10.70
2013,05,02,08,17,10.80
2013,05,02,08,18,10.90
2013,05,02,08,19,11.00
2013,05,02,08,20,11.10
2013,05,02,08,21,11.20
2013,05,02,08,22,11.30
2013,05,02,08,23,11.40
2013,05,02,08,24,11.40
2013,05,02,08,25,11.40
2013,05,02,08,26,11.50
2013,05,02,08,27,11.50
2013,05,02,08,28,11.60
2013,05,02,08,29,11.60
2013,05,02,08,30,11.70
2013,05,02,08,31,11.80
2013,05,02,08,32,11.80
2013,05,02,08,33,11.90
2013,05,02,08,34,11.90
2013,05,02,08,35,12.00
2013,05,02,08,36,12.00
2013,05,02,08,37,12.10
2013,05,02,08,38,12.10
2013,05,02,08,39,12.10
2013,05,02,08,40,12.20
2013,05,02,08,41,12.20
2013,05,02,08,42,12.20
2013,05,02,08,43,12.30
2013,05,02,08,44,12.30
2013,05,02,08,45,12.20
2013,05,02,08,46,12.30
2013,05,02,08,47,12.30
2013,05,02,08,48,12.30
2013,05,02,08,49,12.30
2013,05,02,08,50,12.30
2013,05,02,08,51,12.30
2013,05,02,08,52,12.30
2013,05,02,08,53,12.40
2013,05,02,08,54,12.40
2013,05,02,08,55,12.40
2013,05,02,08,56,12.40
2013,05,02,08,57,12.40
2013,05,02,08,58,12.40
2013,05,02,08,59,12.40
2013,05,02,09,00,12.40
2013,05,02,09,01,12.50
2013,05,02,09,02,12.50
2013,05,02,09,03,12.50
2013,05,02,09,04,12.50
2013,05,02,09,05,12.50
2013,05,02,09,06,12.60
2013,05,02,09,07,12.60
2013,05,02,09,08,12.60
2013,05,02,09,09,12.60
2013,05,02,09,10,12.60
2013,05,02,09,11,12.60
2013,05,02,09,12,12.70
2013,05,02,09,13,12.70
2013,05,02,09,14,12.70
2013,05,02,09,15,12.80
2013,05,02,09,16,12.80
2013,05,02,09,17,12.80
2013,05,02,09,18,12.80
2013,05,02,09,19,12.90
2013,05,02,09,20,12.90
2013,05,02,09,21,13.00
2013,05,02,09,22,13.00
2013,05,02,09,23,13.00
2013,05,02,09,24,13.00
2013,05,02,09,25,13.00
2013,05,02,09,26,13.10
2013,05,02,09,27,13.20
2013,05,02,09,28,13.30
2013,05,02,09,29,13.30
2013,05,02,09,30,13.40
2013,05,02,09,31,13.40
2013,05,02,09,32,13.40
2013,05,02,09,33,13.30
2013,05,02,09,34,13.40
2013,05,02,09,35,13.40
2013,05,02,09,36,13.40
2013,05,02,09,37,13.50
2013,05,02,09,38,13.50
2013,05,02,09,39,13.50
2013,05,02,09,40,13.50
2013,05,02,09,41,13.50
2013,05,02,09,42,13.60
2013,05,02,09,43,13.60
2013,05,02,09,44,13.70
2013,05,02,09,45,13.80
2013,05,02,09,46,13.70
2013,05,02,09,47,13.70
2013,05,02,09,48,13.60
2013,05,02,09,49,13.70
2013,05,02,09,50,13.60
2013,05,02,09,51,13.60
2013,05,02,09,52,13.60
2013,05,02,09,53,13.60
2013,05,02,09,54,13.60
2013,05,02,09,55,13.60
2013,05,02,09,56,13.60
2013,05,02,09,57,13.60
2013,05,02,09,58,13.60
2013,05,02,09,59,13.60
2013,05,02,10,00,13.60
2013,05,02,10,01,13.60
2013,05,02,10,02,13.60
2013,05,02,10,03,13.70
2013,05,02,10,04,13.70
2013,05,02,10,05,13.80
2013,05,02,10,06,13.80
2013,05,02,10,07,13.80
2013,05,02,10,08,13.90
2013,05,02,10,09,13.90
2013,05,02,10,10,13.90
2013,05,02,10,11,13.90
2013,05,02,10,12,13.90
2013,05,02,10,13,13.90
2013,05,02,10,14,13.90
2013,05,02,10,15,13.90
2013,05,02,10,16,14.00
2013,05,02,10,17,14.10
2013,05,02,10,18,14.20
2013,05,02,10,19,14.20
2013,05,02,10,20,14.20
2013,05,02,10,21,14.10
2013,05,02,10,22,14.20
2013,05,02,10,23,14.10
2013,05,02,10,24,14.10
2013,05,02,10,25,14.10
2013,05,02,10,26,14.10
2013,05,02,10,27,14.10
2013,05,02,10,28,14.10
2013,05,02,10,29,14.10
2013,05,02,10,30,14.20
2013,05,02,10,31,14.20
2013,05,02,10,32,14.30
2013,05,02,10,33,14.40
2013,05,02,10,34,14.50
2013,05,02,10,35,14.60
2013,05,02,10,36,14.60
2013,05,02,10,37,14.60
2013,05,02,10,38,14.60
2013,05,02,10,39,14.50
2013,05,02,10,40,14.50
2013,05,02,10,41,14.50
2013,05,02,10,42,14.40
2013,05,02,10,43,14.40
2013,05,02,10,44,14.30
2013,05,02,10,45,14.30
2013,05,02,10,46,14.30
2013,05,02,10,47,14.30
2013,05,02,10,48,14.30
2013,05,02,10,49,14.40
2013,05,02,10,50,14.50
2013,05,02,10,51,14.50
2013,05,02,10,52,14.40
2013,05,02,10,53,14.40
2013,05,02,10,54,14.30
2013,05,02,10,55,14.30
2013,05,02,10,56,14.30
2013,05,02,10,57,14.30
2013,05,02,10,58,14.30
2013,05,02,10,59,14.40
2013,05,02,11,00,14.40
2013,05,02,11,01,14.50
2013,05,02,11,02,14.60
2013,05,02,11,03,14.60
2013,05,02,11,04,14.70
2013,05,02,11,05,14.70
2013,05,02,11,06,14.70
2013,05,02,11,07,14.70
2013,05,02,11,08,14.60
2013,05,02,11,09,14.60
2013,05,02,11,10,14.60
2013,05,02,11,11,14.60
2013,05,02,11,12,14.50
2013,05,02,11,13,14.40
2013,05,02,11,14,14.40
2013,05,02,11,15,14.30
2013,05,02,11,16,14.30
2013,05,02,11,17,14.40
2013,05,02,11,18,14.40
2013,05,02,11,19,14.40
2013,05,02,11,20,14.40
2013,05,02,11,21,14.40
2013,05,02,11,22,14.40
2013,05,02,11,23,14.40
2013,05,02,11,24,14.30
2013,05,02,11,25,14.30
2013,05,02,11,26,14.30
2013,05,02,11,27,14.30
2013,05,02,11,28,14.40
2013,05,02,11,29,14.50
2013,05,02,11,30,14.60
2013,05,02,11,31,14.60
2013,05,02,11,32,14.60
2013,05,02,11,33,14.60
2013,05,02,11,34,14.60
2013,05,02,11,35,14.70
2013,05,02,11,36,14.80
2013,05,02,11,37,14.80
2013,05,02,11,38,14.90
2013,05,02,11,39,14.80
2013,05,02,11,40,14.90
2013,05,02,11,41,14.80
2013,05,02,11,42,14.80
2013,05,02,11,43,14.70
2013,05,02,11,44,14.60
2013,05,02,11,45,14.60
2013,05,02,11,46,14.60
2013,05,02,11,47,14.60
2013,05,02,11,48,14.60
2013,05,02,11,49,14.50
2013,05,02,11,50,14.50
2013,05,02,11,51,14.50
2013,05,02,11,52,14.50
2013,05,02,11,53,14.60
2013,05,02,11,54,14.50
2013,05,02,11,55,14.50
2013,05,02,11,56,14.60
2013,05,02,11,57,14.60
2013,05,02,11,58,14.60
2013,05,02,11,59,14.60
2013,05,02,12,00,14.60
2013,05,02,12,01,14.60
2013,05,02,12,02,14.60
2013,05,02,12,03,14.70
2013,05,02,12,04,14.70
2013,05,02,12,05,14.60
2013,05,02,12,06,14.60
2013,05,02,12,07,14.70
2013,05,02,12,08,14.70
2013,05,02,12,09,14.80
2013,05,02,12,10,14.80
2013,05,02,12,11,14.80
2013,05,02,12,12,14.80
2013,05,02,12,13,14.80
2013,05,02,12,14,14.90
2013,05,02,12,15,14.90
2013,05,02,12,16,14.90
2013,05,02,12,17,14.90
2013,05,02,12,18,14.90
2013,05,02,12,19,14.80
2013,05,02,12,20,14.80
2013,05,02,12,21,14.80
2013,05,02,12,22,14.80
2013,05,02,12,23,14.80
2013,05,02,12,24,14.80
2013,05,02,12,25,14.80
2013,05,02,12,26,14.90
2013,05,02,12,27,14.90
2013,05,02,12,28,14.80
2013,05,02,12,29,14.80
2013,05,02,12,30,14.80
2013,05,02,12,31,14.90
2013,05,02,12,32,14.90
2013,05,02,12,33,14.90
2013,05,02,12,34,15.00
2013,05,02,12,35,14.90
2013,05,02,12,36,14.90
2013,05,02,12,37,14.90
2013,05,02,12,38,14.90
2013,05,02,12,39,14.80
2013,05,02,12,40,14.70
2013,05,02,12,41,14.70
2013,05,02,12,42,14.70
2013,05,02,12,43,14.70
2013,05,02,12,44,14.70
2013,05,02,12,45,14.80
2013,05,02,12,46,14.80
2013,05,02,12,47,14.80
2013,05,02,12,48,14.80
2013,05,02,12,49,14.80
2013,05,02,12,50,14.80
2013,05,02,12,51,14.70
2013,05,02,12,52,14.70
2013,05,02,12,53,14.80
2013,05,02,12,54,14.80
2013,05,02,12,55,14.90
2013,05,02,12,56,14.90
2013,05,02,12,57,14.90
2013,05,02,12,58,15.00
2013,05,02,12,59,15.00
2013,05,02,13,00,14.90
2013,05,02,13,01,14.80
2013,05,02,13,02,14.80
2013,05,02,13,03,14.80
2013,05,02,13,04,14.90
2013,05,02,13,05,14.80
2013,05,02,13,06,14.80
2013,05,02,13,07,14.80
2013,05,02,13,08,14.80
2013,05,02,13,09,14.90
2013,05,02,13,10,14.90
2013,05,02,13,11,15.00
2013,05,02,13,12,15.00
2013,05,02,13,13,14.90
2013,05,02,13,14,14.90
2013,05,02,13,15,14.90
2013,05,02,13,16,14.90
2013,05,02,13,17,14.80
2013,05,02,13,18,14.70
2013,05,02,13,19,14.70
2013,05,02,13,20,14.70
2013,05,02,13,21,14.60
2013,05,02,13,22,14.50
2013,05,02,13,23,14.50
2013,05,02,13,24,14.60
2013,05,02,13,25,14.60
2013,05,02,13,26,14.70
2013,05,02,13,27,14.70
2013,05,02,13,28,14.70
2013,05,02,13,29,14.70
2013,05,02,13,30,14.70
2013,05,02,13,31,14.60
2013,05,02,13,32,14.60
2013,05,02,13,33,14.60
2013,05,02,13,34,14.70
2013,05,02,13,35,14.80
2013,05,02,13,36,14.80
2013,05,02,13,37,14.80
2013,05,02,13,38,14.80
2013,05,02,13,39,14.80
2013,05,02,13,40,14.80
2013,05,02,13,41,14.80
2013,05,02,13,42,14.80
2013,05,02,13,43,14.90
2013,05,02,13,44,14.90
2013,05,02,13,45,14.90
2013,05,02,13,46,14.90
2013,05,02,13,47,14.90
2013,05,02,13,48,14.90
2013,05,02,13,49,14.90
2013,05,02,13,50,14.90
2013,05,02,13,51,14.90
2013,05,02,13,52,14.90
2013,05,02,13,53,14.90
2013,05,02,13,54,14.90
2013,05,02,13,55,14.80
2013,05,02,13,56,14.80
2013,05,02,13,57,14.80
2013,05,02,13,58,14.80
2013,05,02,13,59,14.80
2013,05,02,14,00,14.80
2013,05,02,14,01,14.80
2013,05,02,14,02,14.80
2013,05,02,14,03,14.80
2013,05,02,14,04,14.90
2013,05,02,14,05,15.00
2013,05,02,14,06,15.10
2013,05,02,14,07,15.20
2013,05,02,14,08,15.20
2013,05,02,14,09,15.30
2013,05,02,14,10,15.30
2013,05,02,14,11,15.40
2013,05,02,14,12,15.40
2013,05,02,14,13,15.40
2013,05,02,14,14,15.50
2013,05,02,14,15,15.50
2013,05,02,14,16,15.50
2013,05,02,14,17,15.50
2013,05,02,14,18,15.50
2013,05,02,14,19,15.50
2013,05,02,14,20,15.50
2013,05,02,14,21,15.50
2013,05,02,14,22,15.40
2013,05,02,14,23,15.40
2013,05,02,14,24,15.40
2013,05,02,14,25,15.40
2013,05,02,14,26,15.40
2013,05,02,14,27,15.40
2013,05,02,14,28,15.40
2013,05,02,14,29,15.40
2013,05,02,14,30,15.40
2013,05,02,14,31,15.40
2013,05,02,14,32,15.40
2013,05,02,14,33,15.50
2013,05,02,14,34,15.50
2013,05,02,14,35,15.50
2013,05,02,14,36,15.40
2013,05,02,14,37,15.40
2013,05,02,14,38,15.40
2013,05,02,14,39,15.40
2013,05,02,14,40,15.40
2013,05,02,14,41,15.40
2013,05,02,14,42,15.40
2013,05,02,14,43,15.40
2013,05,02,14,44,15.40
2013,05,02,14,45,15.40
2013,05,02,14,46,15.30
2013,05,02,14,47,15.30
2013,05,02,14,48,15.40
2013,05,02,14,49,15.40
2013,05,02,14,50,15.40
2013,05,02,14,51,15.50
2013,05,02,14,52,15.50
2013,05,02,14,53,15.60
2013,05,02,14,54,15.60
2013,05,02,14,55,15.60
2013,05,02,14,56,15.70
2013,05,02,14,57,15.60
2013,05,02,14,58,15.50
2013,05,02,14,59,15.50
2013,05,02,15,00,15.40
2013,05,02,15,01,15.40
2013,05,02,15,02,15.40
2013,05,02,15,03,15.40
2013,05,02,15,04,15.30
2013,05,02,15,05,15.30
2013,05,02,15,06,15.30
2013,05,02,15,07,15.20
2013,05,02,15,08,15.20
2013,05,02,15,09,15.10
2013,05,02,15,10,15.10
2013,05,02,15,11,15.10
2013,05,02,15,12,15.20
2013,05,02,15,13,15.30
2013,05,02,15,14,15.30
2013,05,02,15,15,15.30
2013,05,02,15,16,15.30
2013,05,02,15,17,15.30
2013,05,02,15,18,15.30
2013,05,02,15,19,15.20
2013,05,02,15,20,15.20
2013,05,02,15,21,15.20
2013,05,02,15,22,15.20
2013,05,02,15,23,15.30
2013,05,02,15,24,15.30
2013,05,02,15,25,15.50
2013,05,02,15,26,15.60
2013,05,02,15,27,15.60
2013,05,02,15,28,15.70
2013,05,02,15,29,15.70
2013,05,02,15,30,15.70
2013,05,02,15,31,15.70
2013,05,02,15,32,15.70
2013,05,02,15,33,15.70
2013,05,02,15,34,15.70
2013,05,02,15,35,15.60
2013,05,02,15,36,15.60
2013,05,02,15,37,15.50
2013,05,02,15,38,15.50
2013,05,02,15,39,15.40
2013,05,02,15,40,15.40
2013,05,02,15,41,15.40
2013,05,02,15,42,15.50
2013,05,02,15,43,15.50
2013,05,02,15,44,15.60
2013,05,02,15,45,15.70
2013,05,02,15,46,15.70
2013,05,02,15,47,15.80
2013,05,02,15,48,15.80
2013,05,02,15,49,15.70
2013,05,02,15,50,15.60
2013,05,02,15,51,15.60
2013,05,02,15,52,15.50
2013,05,02,15,53,15.50
2013,05,02,15,54,15.40
2013,05,02,15,55,15.40
2013,05,02,15,56,15.40
2013,05,02,15,57,15.30
2013,05,02,15,58,15.30
2013,05,02,15,59,15.40
2013,05,02,16,00,15.40
2013,05,02,16,01,15.50
2013,05,02,16,02,15.50
2013,05,02,16,03,15.50
2013,05,02,16,04,15.60
2013,05,02,16,05,15.60
2013,05,02,16,06,15.60
2013,05,02,16,07,15.70
2013,05,02,16,08,15.60
2013,05,02,16,09,15.60
2013,05,02,16,10,15.60
2013,05,02,16,11,15.60
2013,05,02,16,12,15.60
2013,05,02,16,13,15.50
2013,05,02,16,14,15.50
2013,05,02,16,15,15.40
2013,05,02,16,16,15.40
2013,05,02,16,17,15.40
2013,05,02,16,18,15.40
2013,05,02,16,19,15.30
2013,05,02,16,20,15.30
2013,05,02,16,21,15.30
2013,05,02,16,22,15.30
2013,05,02,16,23,15.30
2013,05,02,16,24,15.30
2013,05,02,16,25,15.40
2013,05,02,16,26,15.40
2013,05,02,16,27,15.40
2013,05,02,16,28,15.40
2013,05,02,16,29,15.40
2013,05,02,16,30,15.40
2013,05,02,16,31,15.40
2013,05,02,16,32,15.30
2013,05,02,16,33,15.30
2013,05,02,16,34,15.30
2013,05,02,16,35,15.30
2013,05,02,16,36,15.30
2013,05,02,16,37,15.40
2013,05,02,16,38,15.40
2013,05,02,16,39,15.40
2013,05,02,16,40,15.40
2013,05,02,16,41,15.40
2013,05,02,16,42,15.40
2013,05,02,16,43,15.30
2013,05,02,16,44,15.30
2013,05,02,16,45,15.30
2013,05,02,16,46,15.30
2013,05,02,16,47,15.30
2013,05,02,16,48,15.30
2013,05,02,16,49,15.30
2013,05,02,16,50,15.30
2013,05,02,16,51,15.30
2013,05,02,16,52,15.30
2013,05,02,16,53,15.20
2013,05,02,16,54,15.20
2013,05,02,16,55,15.10
2013,05,02,16,56,15.10
2013,05,02,16,57,15.10
2013,05,02,16,58,15.10
2013,05,02,16,59,15.00
2013,05,02,17,00,15.00
2013,05,02,17,01,15.00
2013,05,02,17,02,15.10
2013,05,02,17,03,15.10
2013,05,02,17,04,15.10
2013,05,02,17,05,15.10
2013,05,02,17,06,15.10
2013,05,02,17,07,15.10
2013,05,02,17,08,15.00
2013,05,02,17,09,15.00
2013,05,02,17,10,15.00
2013,05,02,17,11,15.00
2013,05,02,17,12,14.90
2013,05,02,17,13,14.90
2013,05,02,17,14,15.00
2013,05,02,17,15,14.90
2013,05,02,17,16,14.90
2013,05,02,17,17,14.90
2013,05,02,17,18,14.90
2013,05,02,17,19,14.90
2013,05,02,17,20,14.90
2013,05,02,17,21,14.90
2013,05,02,17,22,14.90
2013,05,02,17,23,14.90
2013,05,02,17,24,14.90
2013,05,02,17,25,14.90
2013,05,02,17,26,14.90
2013,05,02,17,27,14.90
2013,05,02,17,28,14.90
2013,05,02,17,29,14.90
2013,05,02,17,30,14.90
2013,05,02,17,31,14.80
2013,05,02,17,32,14.80
2013,05,02,17,33,14.80
2013,05,02,17,34,14.80
2013,05,02,17,35,14.80
2013,05,02,17,36,14.80
2013,05,02,17,37,14.70
2013,05,02,17,38,14.70
2013,05,02,17,39,14.70
2013,05,02,17,40,14.70